Station ACXS1 - Bennett's Point, ACE Basin Reserve, SC Image indicating link to RSS feed of recent meteorological observations for station ACXS1


Conditions at ACXS1 as of
(3:45 am EDT)
0745 GMT on 06/21/2024:
     

Click on the graph icon in the table below to see a time series plot of the last five days of that observation.

5-day plot - Wind Direction Wind Direction (WDIR): N ( 360 deg true )
5-day plot - Wind Speed Wind Speed (WSPD): 1.9 kts
5-day plot - Atmospheric Pressure Atmospheric Pressure (PRES):30.15 in
5-day plot - Air Temperature Air Temperature (ATMP): 71.6 °F
5-day plot - Dew Point Dew Point (DEWP): 69.3 °F
5-day plot -  Wind Speed, Wind Gust and Atmospheric Pressure Combined plot of Wind Speed, Gust, and Air Pressure
Previous observations
TIME
(EDT)
5-day plot - Wind Direction
WDIR
 
5-day plot - Wind Speed
WSPD
kts
5-day plot - Wind Gust
GST
kts
5-day plot - Wave Height
WVHT
ft
5-day plot - Dominant Wave Period
DPD
sec
5-day plot - Average Wave Period
APD
sec
5-day plot - Mean Wave Direction
MWD
 
5-day plot - Atmospheric Pressure
PRES
in
5-day plot - Pressure Tendency
PTDY
in
5-day plot - Air Temperature
ATMP
°F
5-day plot - Water Temperature
WTMP
°F
5-day plot - Dew Point
DEWP
°F
5-day plot - Salinity
SAL
psu
5-day plot - Visibility
VIS
nmi
5-day plot - Tide (above MLLW)
TIDE
ft
2024-06-21 03:30 am N 1.9-----30.15- 71.8- 69.1---
2024-06-21 03:15 am N 1.9-----30.15- 72.1- 69.1---
2024-06-21 03:00 am N 1.9-----30.18-0.03 72.1- 69.1---
2024-06-21 02:45 am N 1.9-----30.18- 72.3- 69.3---
2024-06-21 02:30 amNNW 1.9-----30.18- 72.7- 69.6---
2024-06-21 02:15 am N 1.0-----30.18- 72.7- 69.3---
2024-06-21 02:00 am- 0.0-----30.18-0.03 73.0- 69.6---
2024-06-21 01:45 am- 0.0-----30.18- 73.2- 69.6---
2024-06-21 01:30 am- 0.0-----30.21- 73.6- 69.3---
2024-06-21 01:15 am- 0.0-----30.21- 73.8- 69.1---
2024-06-21 01:00 amNNE 1.0-----30.21+0.00 74.3- 68.9---
2024-06-21 12:45 amNNE 1.0-----30.21- 74.3- 68.9---
2024-06-21 12:30 amNNE 1.9-----30.21- 74.7- 68.9---
2024-06-21 12:15 amNNE 1.9-----30.21- 75.0- 68.9---
2024-06-21 12:00 amNNE 1.9-----30.21+0.03 75.2- 68.4---
2024-06-20 11:45 pmNNE 1.9-----30.21- 75.6- 68.4---
2024-06-20 11:30 pmNNE 1.9-----30.21- 75.7- 68.9---
2024-06-20 11:15 pmNNE 1.9-----30.21- 75.9- 68.7---
2024-06-20 11:00 pm NE 1.0-----30.21+0.03 76.1- 68.9---
2024-06-20 10:45 pm NE 1.9-----30.21- 76.5- 69.3---
2024-06-20 10:30 pm NE 1.9-----30.21- 76.6- 69.4---
2024-06-20 10:15 pm NE 1.9-----30.21- 77.0- 69.4---
2024-06-20 10:00 pm NE 1.9-----30.21+0.03 77.4- 69.8---
2024-06-20 09:45 pm NE 2.9-----30.21- 77.7- 69.4---
2024-06-20 09:30 pmNNE 2.9-----30.21- 77.7- 68.9---
2024-06-20 09:15 pm NE 4.1-----30.21- 78.1- 68.9---
2024-06-20 09:00 pm NE 4.1-----30.18+0.00 78.3- 68.7---
2024-06-20 08:45 pm NE 4.1-----30.18- 78.4- 68.9---
2024-06-20 08:30 pm NE 2.9-----30.18- 78.8- 69.3---
2024-06-20 08:15 pm NE 2.9-----30.18- 79.5- 68.7---
2024-06-20 08:00 pmENE 2.9-----30.18-0.03 79.9- 69.1---
2024-06-20 07:45 pmENE 2.9-----30.18- 80.2- 69.1---
2024-06-20 07:30 pm NE 2.9-----30.18- 80.8- 69.4---
2024-06-20 07:15 pmENE 4.1-----30.18- 81.1- 69.1---
2024-06-20 07:00 pmENE 2.9-----30.18-0.03 82.8- 71.1---
2024-06-20 06:45 pmENE 2.9-----30.18- 82.9- 68.0---
2024-06-20 06:30 pm E 2.9-----30.18- 84.4- 68.4---
2024-06-20 06:15 pmENE 2.9-----30.18- 85.1- 68.0---
2024-06-20 06:00 pm E 2.9-----30.18-0.06 86.0- 68.4---
2024-06-20 05:45 pm E 2.9-----30.18- 86.4- 67.6---
2024-06-20 05:30 pmENE 1.9-----30.18- 87.1- 67.8---
2024-06-20 05:15 pmENE 4.1-----30.21- 86.5- 67.8---
2024-06-20 05:00 pm E 2.9-----30.21-0.03 87.1- 69.4---
2024-06-20 04:45 pm E 2.9-----30.21- 88.0- 69.3---
2024-06-20 04:30 pm E 2.9-----30.21- 88.9- 67.8---
2024-06-20 04:15 pmENE 4.1-----30.21- 87.4- 67.1---
2024-06-20 04:00 pmENE 4.1-----30.21-0.06 87.4- 67.6---
2024-06-20 03:45 pm NE 5.1-----30.21- 86.7- 68.0---
2024-06-20 03:30 pmENE 4.1-----30.21- 86.7- 69.1---
2024-06-20 03:15 pmENE 2.9-----30.24- 87.1- 69.4---
2024-06-20 03:00 pmENE 2.9-----30.24-0.03 86.9- 69.3---
2024-06-20 02:45 pmENE 4.1-----30.24- 88.2- 68.9---
2024-06-20 02:30 pmENE 2.9-----30.24- 88.5- 69.6---
2024-06-20 02:15 pmENE 4.1-----30.24- 87.1- 69.4---
2024-06-20 02:00 pm E 2.9-----30.24+0.00 87.1- 69.4---
2024-06-20 01:45 pmENE 2.9-----30.24- 87.8- 69.6---
2024-06-20 01:30 pmENE 2.9-----30.27- 86.2- 69.6---
2024-06-20 01:15 pmENE 4.1-----30.27- 85.8- 70.2---
2024-06-20 01:00 pmENE 4.1-----30.27+0.03 85.8- 69.3---
2024-06-20 12:45 pmNNE 4.1-----30.27- 83.1- 70.0---
2024-06-20 12:30 pm N 2.9-----30.27- 83.3- 70.2---
2024-06-20 12:15 pmNNE 4.1-----30.27- 84.2- 70.2---
2024-06-20 12:00 pm NE 4.1-----30.27+0.03 85.3- 69.3---
2024-06-20 11:45 amNNE 5.1-----30.27- 84.0- 69.4---
2024-06-20 11:30 amNNE 4.1-----30.27- 84.2- 69.3---
2024-06-20 11:15 amNNE 4.1-----30.27- 84.7- 69.3---
2024-06-20 11:00 amNNE 5.1-----30.24+0.00 83.7- 68.7---
2024-06-20 10:45 am NE 2.9-----30.24- 84.6- 69.1---
2024-06-20 10:30 amNNE 4.1-----30.24- 82.9- 69.8---
2024-06-20 10:15 amNNE 2.9-----30.24- 82.9- 69.8---
2024-06-20 10:00 amNNE 4.1-----30.24+0.03 82.6- 70.0---
2024-06-20 09:45 amNNE 2.9-----30.24- 81.7- 70.3---
2024-06-20 09:30 amNNE 1.9-----30.24- 80.1- 70.5---
2024-06-20 09:15 am N 2.9-----30.24- 78.4- 70.0---
2024-06-20 09:00 am N 2.9-----30.24+0.06 76.3- 69.8---
2024-06-20 08:45 am N 1.9-----30.24- 77.0- 70.5---
2024-06-20 08:30 am N 1.9-----30.24- 74.5- 69.8---
2024-06-20 08:15 am N 1.9-----30.24- 73.4- 69.1---
2024-06-20 08:00 am N 1.9-----30.24+0.06 74.1- 69.4---
2024-06-20 07:45 am N 1.9-----30.24- 73.8- 69.1---
2024-06-20 07:30 am N 1.9-----30.21- 73.2- 69.3---
2024-06-20 07:15 am N 1.9-----30.21- 72.3- 68.7---
2024-06-20 07:00 am N 1.9-----30.21+0.03 71.4- 68.7---
2024-06-20 06:45 am N 1.9-----30.21- 70.7- 68.5---
2024-06-20 06:30 am N 1.0-----30.21- 70.3- 68.5---
2024-06-20 06:15 am N 1.9-----30.21- 70.5- 68.7---
2024-06-20 06:00 am N 1.9-----30.18+0.00 70.5- 68.7---
2024-06-20 05:45 am N 1.0-----30.18- 70.7- 69.3---
2024-06-20 05:30 am N 1.0-----30.18- 71.1- 69.6---
2024-06-20 05:15 am N 1.0-----30.18- 70.9- 69.4---
2024-06-20 05:00 am- 0.0-----30.18-0.03 70.9- 69.1---
2024-06-20 04:45 am N 1.0-----30.18- 71.1- 69.3---
2024-06-20 04:30 am N 1.0-----30.18- 71.2- 69.8---
2024-06-20 04:15 amNNW 1.9-----30.18- 71.2- 69.8---
2024-06-20 04:00 amNNW 1.0-----30.18-0.03 71.1- 69.6---